Simultaneous Nadir Overpasses (SNOs) Predictions

Prediction of SNOs between GOES-14 and AQUA Satellite Orbit:

Table of predicted SNOs for the next 14.0 days since TLE Epoch: 12/12/2020
Index Date Time (GOES-14) GOES-14 Lat,Lon AQUA Lat,Lon Distance(km) Time Diff (sec)
1 12/12/2020 08:26:53 -0.05,-104.37 -0.30,-103.25 128.08 80
2 12/12/2020 20:48:17 0.07,-104.11 -0.83,-108.43 491.54 80
3 12/14/2020 08:14:41 -0.04,-104.37 -0.91,-100.29 464.32 80
4 12/14/2020 20:36:05 0.06,-104.11 -0.21,-105.47 155.02 80
5 12/16/2020 20:26:33 0.05,-104.10 0.41,-102.51 181.41 80
6 12/17/2020 08:47:49 -0.07,-104.38 0.63,-107.68 375.27 80
7 12/19/2020 08:35:37 -0.07,-104.38 0.00,-104.72 38.59 80
8 12/21/2020 08:20:45 -0.06,-104.38 -0.63,-101.76 298.51 80
9 12/21/2020 20:42:08 0.08,-104.11 -0.55,-106.94 322.40 80
10 12/23/2020 20:32:36 0.07,-104.11 0.09,-103.98 15.34 80
11 12/25/2020 20:20:24 0.06,-104.12 0.73,-101.02 353.07 80
